Regional Weather Roundup
Issued by NWS Cleveland, OH

Home | Current Version | Previous Version | Graphics & Text | Print | Product List | Glossary On
Versions: 1 2 3 4 5 6 7 8 9 10 11 12 13 14 15 16 17 18 19 20 21 22 23 24 25 26 27 28 29 30 31 32 33 34 35 36 37 38 39 40 41 42 43 44 45 46 47 48 49 50
000
ASUS41 KCLE 311802
RWRCLE
OHIO REGIONAL WEATHER ROUNDUP
NATIONAL WEATHER SERVICE CLEVELAND, OH
100 PM EST SAT JAN 31 2015

NOTE: "FAIR" INDICATES FEW OR NO CLOUDS BELOW 12,000 FEET WITH NO
SIGNIFICANT WEATHER AND/OR OBSTRUCTIONS TO VISIBILITY.

OHZ001>008-015>018-024>027-034-035-043-044-311900-
   NORTHWEST OHIO

CITY           SKY/WX    TMP DP  RH WIND       PRES   REMARKS
DEFIANCE       SUNNY     33  22  63 SW12G21   30.24F WCI  24
FINDLAY        SUNNY     31  20  63 SW13      30.25F WCI  21
TOLEDO EXPRESS SUNNY     32  20  61 SW14G20   30.23F WCI  22
TOLEDO EXEC    SUNNY     31  20  63 SW14G24   30.25F WCI  21
LIMA           SUNNY     32  21  64 SW16      30.26F WCI  21
$$

OHZ009>014-019>023-028>033-038-089-311900-
   NORTHEAST OHIO

CITY           SKY/WX    TMP DP  RH WIND       PRES   REMARKS
CLE-HOPKINS    CLOUDY    26  16  65 SW12      30.30F WCI  16
CLE-LAKEFRONT  CLOUDY    27  16  63 S14       30.27F WCI  16
CUY CO. ARPT   CLOUDY    28  18  64 W16       30.27F WCI  17
LORAIN-ELYRIA  CLOUDY    26  17  68 SW15      30.27F WCI  14
ASHTABULA      PTSUNNY   22  13  68 VRB6      30.26F WCI  14
AKRON-CANTON   MOSUNNY   24  13  62 SW12      30.27F WCI  13
WOOSTER        SUNNY     25  15  66 SW14      30.27F WCI  13
MANSFIELD      SUNNY     27  17  66 S14       30.25F WCI  16
YOUNGSTOWN     PTSUNNY   23  14  68 SW8       30.25F WCI  14
$$

OHZ042-051>053-060>062-070>072-077>081-311900-
  SOUTHWEST OHIO

CITY           SKY/WX    TMP DP  RH WIND       PRES   REMARKS
CINC-COVINGTON CLOUDY    36  19  50 SW9       30.32F
CINC-LUNKEN    MOSUNNY   36  18  48 SW12      30.36F
HAMILTON       MOSUNNY   37  20  50 W12       30.34F
DAYTON         MOSUNNY   35  23  61 SW12      30.30F WCI  27
WRIGHT-PAT AFB PTSUNNY   34  21  60 SW13      30.31F WCI  25
DAYTON GENERAL FAIR      35  21  56 SW10      30.30F WCI  27
WILMINGTON     SUNNY     33  20  58 SW13      30.30F WCI  24
$$

OHZ036-037-039>041-045>050-054>059-063>069-073>076-082>088-311900-
  CENTRAL AND SOUTHEAST OHIO

CITY           SKY/WX    TMP DP  RH WIND       PRES   REMARKS
COLUMBUS       MOSUNNY   29  18  63 S10       30.31F WCI  20
OSU AIRPORT    SUNNY     31  19  61 SW14      30.29F WCI  21
BOLTON FIELD   NOT AVBL
RICKENBACK AFB NOT AVBL
NEWARK         SUNNY     28  17  63 S12       30.30F WCI  18
MARION         SUNNY     28  17  63 SW13      30.28F WCI  17
LANCASTER      SUNNY     30  19  63 SW8       30.32F WCI  22
ZANESVILLE     SUNNY     28  15  58 W9        30.31F WCI  19
NEW PHILLY     SUNNY     26  14  60 SW8       30.32F WCI  18
$$



USA.gov is the U.S. government's official web portal to all federal, state and local government web resources and services.